Theta_e
327 327 328 328 330 326 325 324 326 327 325 325 326 326 325 325 325 325 325 327 328 326 326 326 325 327 328 328 328 328 328 327 329 327 328 328 327 327 326 326 327 329 327
327 326 328 329 329 327 325 326 326 326 326 327 327 326 324 324 325 327 327 328 325 326 326 327 327 328 328 328 328 327 327 326 325 327 328 329 328 326 326 327 328 328 317
326 326 327 328 329 327 327 327 327 327 327 328 328 327 327 326 328 328 328 328 327 327 325 327 327 327 327 327 327 327 326 327 327 327 328 328 328 328 328 327 326 314 312
324 325 325 328 328 325 327 326 327 328 326 327 328 327 328 328 328 328 328 328 328 327 324 326 327 327 326 325 326 326 326 326 327 327 325 325 327 326 322 323 317 314 313
321 324 323 327 327 327 330 328 327 329 327 327 328 328 328 328 328 326 327 326 325 326 326 325 325 326 325 325 325 326 327 326 326 323 323 324 326 323 314 312 310 312 316
319 320 321 325 328 329 327 330 330 326 326 325 325 328 328 327 328 328 328 328 328 327 328 327 326 326 326 325 324 325 323 325 323 319 318 317 317 316 316 316 316 317 320
319 320 320 323 328 329 327 326 327 325 324 323 322 325 328 329 328 328 328 328 328 328 327 327 327 327 327 326 323 323 323 321 322 321 322 321 321 322 320 319 321 320 321
319 320 320 322 323 328 329 327 325 325 325 324 319 324 324 325 328 329 329 329 328 328 327 328 328 328 325 324 323 322 325 323 325 325 323 322 323 322 322 323 324 325 326
320 320 320 318 323 322 328 328 326 326 326 325 317 317 317 320 321 323 325 327 327 328 329 328 329 323 323 324 319 322 323 322 322 324 326 325 325 325 325 326 326 325 320
321 322 321 319 321 321 325 326 326 326 326 324 322 315 317 319 322 319 319 322 322 323 321 320 320 318 319 318 317 317 317 316 316 315 313 312 312 312 313 314 314 314 312
322 322 321 319 319 320 322 324 324 322 322 326 325 322 315 315 320 322 320 318 318 319 320 319 318 318 315 314 314 315 314 314 313 314 314 314 317 318 317 316 315 314 313
322 322 322 321 318 318 320 322 322 322 324 327 326 325 322 314 313 317 320 320 317 316 316 315 315 314 311 314 316 316 316 315 314 312 312 315 318 319 319 318 316 314 314
323 322 323 322 320 318 318 320 322 321 326 326 327 325 322 315 310 312 318 317 313 311 310 311 311 312 312 314 314 314 313 312 311 311 315 319 320 319 318 317 316 315 314
323 323 323 322 321 319 319 319 319 320 325 326 325 324 320 316 309 309 314 314 311 313 311 311 313 314 314 314 313 312 311 312 312 315 318 319 320 319 318 317 316 314 309
324 324 323 323 322 321 320 319 319 316 315 320 321 320 316 315 308 306 310 312 313 315 316 315 314 315 314 312 312 312 318 319 317 319 321 321 319 319 317 313 307 301 301
324 324 323 323 322 322 321 319 320 317 315 317 320 317 316 315 314 308 307 312 315 318 318 318 317 313 312 313 318 319 320 320 320 321 321 320 318 313 310 303 300 301 300
324 324 323 323 322 322 322 320 318 319 318 319 319 319 319 319 319 314 309 310 313 318 319 315 313 315 321 323 323 323 322 321 321 321 321 319 315 308 299 298 298 296 296
323 324 324 324 323 322 322 322 318 318 319 321 317 318 319 319 321 319 315 311 312 314 315 313 314 320 323 323 324 324 322 322 321 321 318 314 303 299 298 296 297 296 296
327 325 324 324 324 323 323 323 321 319 319 318 318 318 319 319 320 320 319 317 315 315 315 313 317 321 323 324 325 324 324 322 320 316 311 299 298 297 296 297 296 296 296
329 327 325 325 324 324 325 324 323 320 321 320 318 317 318 319 319 320 320 319 319 316 314 314 317 318 324 326 325 324 322 319 316 304 298 297 296 296 296 296 296 296 297
330 330 327 325 325 325 324 326 324 323 321 321 320 318 317 318 319 319 319 319 318 317 315 316 317 317 321 326 324 323 321 318 303 298 297 296 296 297 297 296 296 296 297
331 331 330 327 326 326 325 324 326 324 323 321 320 320 320 318 316 318 318 318 318 317 316 317 320 323 323 325 324 323 320 307 298 297 296 296 296 297 297 296 296 295 295
332 331 332 330 327 326 326 326 325 325 324 323 321 321 321 320 319 318 316 318 318 318 318 316 316 321 324 323 322 320 308 298 297 299 297 297 298 297 297 297 297 295 293
331 331 331 332 331 328 327 326 327 325 325 324 323 323 322 321 321 320 318 317 318 318 318 317 319 323 322 319 317 303 297 300 307 300 298 297 297 297 298 298 297 294 293
332 331 330 331 331 331 330 328 328 326 325 324 325 324 323 322 321 320 318 317 316 316 318 319 321 319 318 313 301 297 301 306 300 297 297 297 298 297 297 297 295 292 292
329 329 330 330 330 330 331 330 329 329 328 327 325 325 324 323 321 319 319 317 318 320 321 321 318 316 310 302 299 303 306 302 297 295 296 298 297 297 296 294 292 292 291
Wind_Speed
6 6 2 6 6 8 8 10 9 11 13 15 14 16 19 19 20 24 25 23 25 24 20 16 17 19 24 21 24 26 21 20 25 25 25 23 24 25 26 22 15 13 12
7 7 5 3 4 8 9 13 11 8 10 12 15 18 18 20 22 22 23 28 31 25 16 13 20 26 24 23 24 21 23 22 23 25 21 16 16 21 20 19 16 15 12
9 7 9 4 5 8 9 11 15 17 16 16 12 15 17 19 20 20 22 24 25 19 16 16 24 29 27 20 27 27 22 22 19 16 16 14 16 18 16 16 15 11 10
12 8 10 5 5 9 9 11 16 17 17 17 14 15 14 14 15 18 17 19 21 21 17 17 19 24 25 26 24 17 14 16 19 17 15 17 17 15 11 16 15 12 10
14 10 8 8 11 13 10 10 11 14 16 14 13 14 15 13 12 17 18 19 17 20 14 18 19 30 30 25 17 12 14 21 18 16 18 21 20 19 15 12 12 11 11
15 13 8 12 13 11 11 9 11 13 12 9 12 15 16 18 16 14 18 18 18 19 19 21 30 28 23 18 16 17 11 13 16 17 17 16 13 11 9 8 8 10 12
16 15 9 16 15 14 13 13 13 11 10 9 8 9 17 17 14 18 20 20 20 21 27 32 28 27 20 17 16 16 15 13 7 6 8 6 5 5 1 5 7 12 13
18 16 11 17 16 16 16 15 14 12 9 6 14 15 15 17 17 17 17 18 18 21 30 26 23 21 19 17 13 15 13 12 13 10 10 8 8 10 9 9 10 14 15
20 20 14 15 19 15 18 17 17 14 9 7 11 15 16 18 17 16 17 21 23 23 23 22 21 21 17 14 15 17 17 16 16 13 10 11 9 8 10 13 15 17 19
19 23 18 12 19 17 18 17 17 18 13 9 9 11 13 15 16 17 19 22 20 19 17 17 17 16 17 17 16 16 15 14 13 12 10 7 6 6 9 10 11 11 11
20 22 21 17 19 17 20 19 15 17 17 12 8 10 12 14 17 16 15 18 18 18 18 20 19 18 15 14 14 14 15 14 11 9 6 5 4 4 5 5 7 6 8
23 24 24 20 19 19 20 21 17 19 19 17 15 10 10 15 18 18 17 16 16 16 17 17 17 17 17 17 17 14 10 9 8 4 6 8 8 7 6 7 8 9 6
25 27 26 24 21 20 20 21 21 20 21 21 19 16 13 13 19 21 19 16 16 15 15 16 17 18 18 16 14 12 11 10 8 9 12 9 5 5 7 9 6 5 8
27 28 29 27 24 21 18 21 22 23 26 24 22 21 17 16 20 25 24 20 20 19 18 20 20 18 17 16 13 12 11 11 12 13 9 7 7 7 8 8 8 9 6
29 29 31 30 27 24 21 21 21 23 27 26 25 22 21 19 21 24 27 25 23 21 21 21 22 21 20 18 16 12 12 14 16 10 6 3 6 9 5 3 2 2 6
33 33 31 33 31 27 22 22 19 20 22 26 18 20 19 15 14 21 25 25 27 25 25 23 23 21 19 15 16 19 19 16 12 9 5 3 5 3 3 1 4 4 4
38 37 34 34 34 31 26 24 22 19 21 18 23 21 20 18 15 18 24 27 29 27 24 21 19 17 15 17 15 17 18 15 13 10 8 7 7 6 8 7 2 2 4
39 37 38 36 36 34 30 26 25 24 27 24 28 28 26 25 23 18 23 27 32 33 28 24 22 19 19 21 21 24 20 17 15 12 10 9 10 11 7 6 6 5 6
38 39 38 38 36 33 31 27 26 27 28 29 30 33 30 29 27 27 25 29 32 32 30 28 26 23 21 22 27 27 20 17 15 14 10 13 13 11 11 7 4 3 4
38 40 42 40 38 34 32 31 30 30 30 30 34 36 37 32 32 33 36 33 30 28 29 31 29 26 25 29 29 25 19 18 15 14 17 16 14 12 8 6 3 3 7
40 40 43 43 42 40 36 35 35 32 35 34 32 32 36 38 36 35 35 37 35 32 32 32 28 28 29 32 29 24 22 19 19 21 18 17 15 13 9 4 2 3 6
38 39 41 46 45 40 41 38 38 39 36 37 36 34 30 31 41 43 41 39 37 36 36 34 30 31 32 35 32 28 24 23 25 22 19 16 12 10 7 3 2 6 9
38 38 34 40 45 44 36 39 38 38 39 37 38 38 36 35 34 36 45 43 40 38 44 37 34 35 36 33 29 25 27 29 24 20 23 18 13 9 7 2 3 8 10
34 36 34 32 39 44 42 41 30 40 37 40 40 42 41 39 39 40 40 44 45 48 47 42 40 40 36 33 30 30 33 29 24 26 19 16 12 9 7 4 5 9 10
25 28 32 29 29 34 38 41 33 41 31 38 38 43 43 42 44 47 45 42 46 46 45 42 38 33 32 35 36 35 28 24 24 21 18 16 13 11 7 5 7 8 9
25 20 23 27 27 28 29 32 38 32 37 33 36 36 39 42 45 47 46 45 44 45 44 38 33 35 36 37 34 31 27 28 23 20 19 17 14 11 8 8 6 6 8
Wind_Direction
169 155 108 72 54 56 64 71 101 112 112 123 121 131 136 145 153 155 162 161 150 147 152 159 167 166 158 156 169 179 175 174 163 154 168 177 182 187 197 202 220 236 235
180 151 142 122 91 87 81 76 88 106 115 117 125 134 147 146 149 155 162 162 156 151 126 140 157 153 152 153 148 147 167 163 147 150 158 169 183 184 199 219 224 222 220
184 166 156 178 133 118 99 77 83 94 105 109 117 133 147 155 157 158 160 166 172 163 129 124 146 152 146 143 149 145 141 154 162 159 160 164 168 185 198 207 212 215 223
190 184 168 191 154 117 114 102 106 93 89 95 94 113 134 144 154 159 162 158 154 156 139 128 140 154 147 142 142 139 143 147 157 169 177 181 185 185 198 203 209 222 238
194 191 171 176 143 114 116 113 109 97 93 97 106 118 133 130 154 165 165 156 160 168 151 145 146 144 139 134 129 141 159 176 167 176 182 183 191 193 199 209 221 244 259
197 202 187 175 152 140 138 128 124 109 131 120 95 94 126 126 120 118 163 173 175 178 169 157 162 157 152 150 143 150 156 164 167 170 160 170 179 182 194 213 240 255 268
194 201 197 172 165 166 156 145 137 136 133 118 127 117 115 114 129 127 122 130 127 142 145 144 153 169 165 159 152 148 167 174 152 119 103 115 110 79 181 241 269 274 285
191 201 204 174 182 184 172 162 154 158 155 122 135 137 123 112 118 127 132 127 130 133 154 158 152 157 155 154 154 161 162 175 180 195 213 229 245 240 247 263 274 276 271
191 205 203 186 188 187 177 178 174 167 165 144 147 147 144 135 132 129 133 134 132 135 146 156 161 158 153 159 170 175 180 185 192 196 192 201 227 249 249 252 259 270 283
193 205 204 195 190 189 188 196 191 188 183 166 142 158 155 149 143 142 144 146 142 143 150 159 163 162 165 169 172 180 181 186 197 200 204 216 243 262 265 266 275 285 287
194 200 204 197 197 204 195 203 202 194 182 178 177 164 172 175 164 161 159 165 171 165 166 171 170 174 174 172 170 170 173 169 172 182 203 221 225 239 252 272 273 280 289
196 198 205 201 200 202 205 208 211 193 182 180 204 207 196 186 187 181 181 182 187 184 181 179 177 176 177 175 178 175 178 190 203 206 214 214 223 251 301 298 284 285 291
196 201 205 203 206 207 208 209 209 199 188 192 198 214 221 196 189 188 191 188 186 180 179 177 173 170 174 176 179 188 207 218 227 217 212 214 229 259 272 284 278 267 304
196 203 205 205 205 207 213 217 215 207 200 200 203 211 217 200 193 190 190 188 177 170 166 172 174 179 184 194 199 213 227 229 223 217 211 225 244 253 263 281 290 296 307
196 206 209 208 210 213 222 224 226 223 213 208 211 217 210 203 199 196 194 189 184 181 179 183 187 193 201 206 212 216 212 208 199 197 190 248 259 284 274 276 272 101 49
197 207 210 208 210 216 220 217 228 231 218 214 217 212 213 215 205 203 201 195 190 190 192 198 197 201 210 210 204 197 210 211 201 194 205 289 294 237 273 178 93 57 11
201 206 211 212 211 214 217 223 220 213 208 210 209 205 216 218 216 213 202 200 201 202 204 207 209 211 204 197 217 228 226 221 220 223 257 253 225 235 161 133 137 136 60
205 212 213 215 214 217 222 227 225 217 207 208 205 204 214 219 225 214 205 201 203 210 218 218 218 213 220 232 237 237 228 222 224 232 222 225 183 162 147 159 128 78 40
208 210 215 218 219 219 223 227 225 223 219 216 211 209 211 217 219 218 214 214 213 216 220 219 215 218 226 230 228 219 212 210 204 204 204 177 166 159 164 148 108 70 39
212 215 214 215 218 217 222 226 226 224 226 226 223 217 217 218 218 214 218 222 224 226 221 220 219 224 222 224 219 210 203 195 199 185 175 174 171 169 161 152 147 49 9
213 219 218 217 217 219 222 224 226 226 224 229 235 232 228 225 224 225 220 220 220 222 221 224 227 231 229 224 220 211 203 199 187 181 176 176 174 169 164 150 77 28 356
215 219 221 218 220 220 223 226 227 228 229 230 233 237 235 234 232 230 228 224 223 225 227 230 233 231 232 228 220 216 205 189 181 181 175 178 173 180 173 161 56 4 346
214 217 222 222 220 219 224 228 229 230 228 227 231 239 232 230 236 235 234 228 219 230 235 233 239 230 218 217 215 208 191 179 174 177 189 181 177 180 183 169 354 335 338
216 215 220 226 224 223 222 226 228 232 233 232 230 235 239 237 234 234 231 229 224 231 231 234 232 220 211 201 193 186 181 176 175 192 187 186 182 176 181 215 295 317 324
208 217 221 224 231 230 231 228 230 232 235 237 238 234 233 234 232 228 227 225 223 227 225 222 214 207 202 190 182 177 174 173 189 191 191 188 185 190 199 238 283 302 326
220 211 219 224 229 238 234 232 231 232 240 239 243 239 233 229 226 225 224 223 222 215 212 207 204 198 187 184 179 178 170 181 192 195 188 193 196 202 216 247 263 301 328